| time (UTC) | temp F | wind direction | speed MPH | gust MPH | rain 1hr in | rain 24hr in | rain mn in | humidity % | barometer mb |
| 20260902081719 | 57 | 55 | 1.0 | 3.0 | 0.00 | 0.02 | 0.00 | 83 | 1020.7 |
| 20260902080719 | 57 | 72 | 0.0 | 3.0 | 0.00 | 0.02 | 0.00 | 82 | 1020.7 |
| 20260902075719 | 57 | 41 | 0.0 | 1.0 | 0.00 | 0.02 | 0.00 | 82 | 1020.7 |
| 20260902074719 | 56 | 41 | 1.0 | 4.0 | 0.00 | 0.02 | 0.00 | 81 | 1020.8 |
| 20260902073719 | 56 | 89 | 0.0 | 3.0 | 0.00 | 0.02 | 0.00 | 81 | 1020.7 |
| 20260902072719 | 56 | 86 | 0.0 | 2.0 | 0.00 | 0.02 | 0.00 | 80 | 1020.7 |
| 20260902071719 | 56 | 92 | 0.0 | 2.0 | 0.00 | 0.02 | 0.00 | 80 | 1020.6 |
| 20260902070719 | 56 | 57 | 0.0 | 3.0 | 0.00 | 0.02 | 0.00 | 80 | 1020.6 |
| 20260902065719 | 55 | 106 | 1.0 | 5.0 | 0.00 | 0.02 | 0.00 | 80 | 1020.6 |
| 20260902064719 | 55 | 84 | 0.0 | 1.0 | 0.00 | 0.02 | 0.00 | 79 | 1020.6 |
| 20260902063719 | 54 | 61 | 0.0 | 2.0 | 0.00 | 0.02 | 0.00 | 80 | 1020.7 |
| 20260902062719 | 54 | 91 | 1.0 | 4.0 | 0.00 | 0.02 | 0.00 | 80 | 1020.7 |
| 20260902061719 | 54 | 92 | 1.0 | 4.0 | 0.00 | 0.02 | 0.00 | 80 | 1020.7 |
| 20260902060719 | 54 | 83 | 1.0 | 7.0 | 0.00 | 0.02 | 0.00 | 79 | 1020.8 |
| 20260902055719 | 53 | 81 | 0.0 | 4.0 | 0.00 | 0.02 | 0.00 | 80 | 1020.7 |
| 20260902054719 | 53 | 34 | 0.0 | 2.0 | 0.00 | 0.02 | 0.00 | 80 | 1020.9 |
| 20260902053719 | 53 | 344 | 0.0 | 3.0 | 0.00 | 0.02 | 0.00 | 80 | 1021.0 |
| 20260902052719 | 53 | 26 | 0.0 | 2.0 | 0.00 | 0.02 | 0.00 | 80 | 1020.9 |
| 20260902051719 | 53 | 132 | 0.0 | 1.0 | 0.00 | 0.02 | 0.00 | 80 | 1020.9 |
| 20260902050719 | 53 | 138 | 0.0 | 1.0 | 0.00 | 0.02 | 0.00 | 80 | 1020.7 |
| 20260902045719 | 52 | 133 | 0.0 | 0.0 | 0.00 | 0.02 | 0.00 | 80 | 1020.6 |
| 20260902044719 | 52 | 133 | 0.0 | 0.0 | 0.00 | 0.02 | 0.00 | 80 | 1020.5 |
| 20260902043719 | 51 | 133 | 0.0 | 0.0 | 0.00 | 0.02 | 0.00 | 80 | 1020.6 |
| 20260902042719 | 51 | 132 | 0.0 | 0.0 | 0.00 | 0.02 | 0.00 | 80 | 1020.6 |
| 20260902041719 | 51 | 133 | 0.0 | 0.0 | 0.00 | 0.02 | 0.00 | 81 | 1020.8 |
| 20260902040719 | 52 | 132 | 0.0 | 0.0 | 0.00 | 0.02 | 0.00 | 80 | 1020.8 |
| 20260902035719 | 51 | 137 | 0.0 | 0.0 | 0.00 | 0.02 | 0.00 | 80 | 1021.0 |
| 20260902034719 | 51 | 137 | 0.0 | 0.0 | 0.00 | 0.02 | 0.00 | 81 | 1020.8 |
| 20260902033720 | 51 | 137 | 0.0 | 0.0 | 0.00 | 0.02 | 0.00 | 81 | 1020.8 |
| 20260902032719 | 51 | 137 | 0.0 | 0.0 | 0.00 | 0.02 | 0.00 | 80 | 1020.8 |
| 20260902031719 | 51 | 137 | 0.0 | 0.0 | 0.00 | 0.02 | 0.00 | 81 | 1020.8 |
| 20260902030719 | 51 | 137 | 0.0 | 0.0 | 0.00 | 0.02 | 0.00 | 81 | 1020.8 |
| 20260902025720 | 52 | 137 | 0.0 | 0.0 | 0.00 | 0.02 | 0.00 | 81 | 1020.8 |
| 20260902024720 | 52 | 137 | 0.0 | 0.0 | 0.00 | 0.02 | 0.00 | 80 | 1020.9 |
| 20260902023720 | 51 | 136 | 0.0 | 0.0 | 0.00 | 0.02 | 0.00 | 80 | 1021.1 |
| 20260902022720 | 50 | 136 | 0.0 | 0.0 | 0.00 | 0.02 | 0.00 | 81 | 1021.1 |
| 20260902021720 | 50 | 136 | 0.0 | 0.0 | 0.00 | 0.02 | 0.00 | 82 | 1020.9 |
| 20260902020720 | 50 | 136 | 0.0 | 0.0 | 0.00 | 0.02 | 0.00 | 83 | 1020.9 |
| 20260902015720 | 50 | 136 | 0.0 | 0.0 | 0.00 | 0.02 | 0.00 | 83 | 1020.8 |
| 20260902014720 | 51 | 136 | 0.0 | 1.0 | 0.00 | 0.02 | 0.00 | 83 | 1020.9 |
| 20260902013720 | 51 | 143 | 0.0 | 0.0 | 0.00 | 0.02 | 0.00 | 83 | 1020.9 |
| 20260902012720 | 52 | 61 | 0.0 | 0.0 | 0.00 | 0.02 | 0.00 | 82 | 1020.9 |
| 20260902011720 | 51 | 61 | 0.0 | 0.0 | 0.00 | 0.02 | 0.00 | 83 | 1020.8 |
| 20260902010720 | 52 | 61 | 0.0 | 0.0 | 0.00 | 0.02 | 0.00 | 83 | 1020.8 |
| 20260902005720 | 52 | 61 | 0.0 | 0.0 | 0.00 | 0.02 | 0.00 | 83 | 1020.8 |
| 20260902004720 | 52 | 61 | 0.0 | 0.0 | 0.00 | 0.02 | 0.00 | 83 | 1020.9 |
| 20260902003720 | 53 | 61 | 0.0 | 0.0 | 0.00 | 0.02 | 0.00 | 83 | 1020.9 |
| 20260902002720 | 53 | 61 | 0.0 | 0.0 | 0.00 | 0.02 | 0.00 | 83 | 1021.1 |
| 20260902001720 | 53 | 61 | 0.0 | 0.0 | 0.00 | 0.02 | 0.00 | 83 | 1021.0 |
| 20260902000720 | 54 | 61 | 0.0 | 0.0 | 0.00 | 0.02 | 0.00 | 83 | 1021.1 |
| 20260901235720 | 54 | 61 | 0.0 | 0.0 | 0.00 | 0.02 | 0.00 | 83 | 1021.0 |
| 20260901234720 | 54 | 61 | 0.0 | 0.0 | 0.00 | 0.02 | 0.00 | 83 | 1021.0 |
| 20260901232720 | 55 | 61 | 0.0 | 0.0 | 0.00 | 0.02 | 0.00 | 83 | 1021.1 |
| 20260901231720 | 55 | 61 | 0.0 | 0.0 | 0.00 | 0.02 | 0.00 | 83 | 1021.0 |
| 20260901230720 | 55 | 61 | 0.0 | 0.0 | 0.00 | 0.02 | 0.00 | 83 | 1021.0 |
| 20260901225720 | 55 | 61 | 0.0 | 0.0 | 0.00 | 0.02 | 0.00 | 83 | 1020.9 |
| 20260901224720 | 55 | 61 | 0.0 | 0.0 | 0.00 | 0.02 | 0.00 | 83 | 1020.9 |
| 20260901223720 | 55 | 61 | 0.0 | 0.0 | 0.00 | 0.02 | 0.00 | 84 | 1020.8 |
| 20260901222720 | 56 | 61 | 0.0 | 0.0 | 0.00 | 0.02 | 0.00 | 83 | 1020.7 |
| 20260901221720 | 56 | 61 | 0.0 | 0.0 | 0.00 | 0.02 | 0.00 | 84 | 1020.7 |
| 20260901220720 | 56 | 61 | 0.0 | 0.0 | 0.00 | 0.02 | 0.02 | 84 | 1020.8 |
| 20260901215720 | 56 | 61 | 0.0 | 0.0 | 0.00 | 0.02 | 0.02 | 84 | 1020.8 |
| 20260901214720 | 57 | 61 | 0.0 | 0.0 | 0.00 | 0.02 | 0.02 | 84 | 1020.8 |
| 20260901213720 | 57 | 61 | 0.0 | 0.0 | 0.00 | 0.02 | 0.02 | 84 | 1020.8 |
| 20260901212720 | 57 | 61 | 1.0 | 3.0 | 0.00 | 0.02 | 0.02 | 84 | 1020.9 |
| 20260901211720 | 57 | 60 | 0.0 | 0.0 | 0.00 | 0.02 | 0.02 | 84 | 1020.9 |
| 20260901210720 | 57 | 60 | 0.0 | 0.0 | 0.00 | 0.02 | 0.02 | 85 | 1020.9 |
| 20260901205720 | 57 | 60 | 0.0 | 0.0 | 0.00 | 0.02 | 0.02 | 85 | 1020.9 |
| 20260901204720 | 57 | 60 | 0.0 | 0.0 | 0.00 | 0.02 | 0.02 | 85 | 1020.9 |
| 20260901203720 | 58 | 60 | 0.0 | 0.0 | 0.00 | 0.02 | 0.02 | 85 | 1020.9 |
| 20260901202720 | 58 | 60 | 0.0 | 0.0 | 0.00 | 0.02 | 0.02 | 85 | 1020.8 |
| 20260901201720 | 58 | 60 | 0.0 | 0.0 | 0.00 | 0.02 | 0.02 | 86 | 1020.8 |
| 20260901200720 | 58 | 60 | 0.0 | 0.0 | 0.00 | 0.02 | 0.02 | 86 | 1020.8 |
| 20260901195720 | 58 | 60 | 0.0 | 0.0 | 0.00 | 0.02 | 0.02 | 86 | 1020.8 |
| 20260901194720 | 58 | 60 | 0.0 | 0.0 | 0.00 | 0.02 | 0.02 | 86 | 1020.7 |
| 20260901193720 | 59 | 58 | 0.0 | 0.0 | 0.00 | 0.02 | 0.02 | 86 | 1020.8 |
| 20260901192721 | 59 | 58 | 0.0 | 0.0 | 0.00 | 0.02 | 0.02 | 86 | 1020.9 |
| 20260901191720 | 59 | 58 | 0.0 | 0.0 | 0.00 | 0.02 | 0.02 | 86 | 1020.8 |
| 20260901190721 | 59 | 58 | 0.0 | 0.0 | 0.00 | 0.02 | 0.02 | 86 | 1020.8 |
| 20260901185721 | 60 | 57 | 0.0 | 0.0 | 0.00 | 0.02 | 0.02 | 86 | 1020.7 |
| 20260901184721 | 60 | 57 | 0.0 | 0.0 | 0.00 | 0.02 | 0.02 | 86 | 1020.5 |
| 20260901183721 | 60 | 57 | 0.0 | 0.0 | 0.00 | 0.02 | 0.02 | 86 | 1020.4 |
| 20260901182721 | 60 | 53 | 0.0 | 0.0 | 0.00 | 0.02 | 0.02 | 86 | 1020.2 |
| 20260901181721 | 60 | 52 | 0.0 | 0.0 | 0.00 | 0.02 | 0.02 | 86 | 1020.2 |
| 20260901180721 | 60 | 51 | 0.0 | 2.0 | 0.00 | 0.02 | 0.02 | 86 | 1020.2 |
| 20260901175721 | 61 | 50 | 1.0 | 1.0 | 0.01 | 0.02 | 0.02 | 86 | 1020.1 |
| 20260901174721 | 61 | 49 | 1.0 | 4.0 | 0.01 | 0.02 | 0.02 | 85 | 1020.0 |
| 20260901173721 | 61 | 238 | 1.0 | 1.0 | 0.01 | 0.02 | 0.02 | 85 | 1020.0 |
| 20260901172721 | 61 | 219 | 2.0 | 5.0 | 0.01 | 0.02 | 0.02 | 85 | 1019.8 |
| 20260901171721 | 62 | 282 | 0.0 | 3.0 | 0.01 | 0.02 | 0.02 | 85 | 1019.8 |
| 20260901170721 | 62 | 282 | 0.0 | 0.0 | 0.01 | 0.02 | 0.02 | 85 | 1019.8 |
| 20260901165721 | 62 | 282 | 1.0 | 0.0 | 0.00 | 0.01 | 0.01 | 84 | 1019.7 |
| 20260901164721 | 62 | 266 | 4.0 | 8.0 | 0.01 | 0.01 | 0.01 | 84 | 1019.9 |
| 20260901163721 | 62 | 228 | 3.0 | 5.0 | 0.01 | 0.01 | 0.01 | 84 | 1019.7 |
| 20260901162721 | 61 | 253 | 3.0 | 8.0 | 0.01 | 0.01 | 0.01 | 84 | 1019.7 |
| 20260901161721 | 62 | 212 | 2.0 | 5.0 | 0.01 | 0.01 | 0.01 | 83 | 1019.7 |
| 20260901160721 | 63 | 217 | 3.0 | 6.0 | 0.01 | 0.01 | 0.01 | 81 | 1019.7 |
| 20260901155721 | 64 | 303 | 5.0 | 10.0 | 0.01 | 0.01 | 0.01 | 76 | 1019.7 |
| 20260901154721 | 65 | 257 | 7.0 | 16.0 | 0.00 | 0.00 | 0.00 | 73 | 1019.7 |
| 20260901153721 | 65 | 248 | 6.0 | 12.0 | 0.00 | 0.00 | 0.00 | 72 | 1019.5 |
| 20260901152721 | 65 | 245 | 6.0 | 13.0 | 0.00 | 0.15 | 0.00 | 71 | 1019.5 |
| 20260901151721 | 66 | 278 | 5.0 | 8.0 | 0.00 | 0.15 | 0.00 | 72 | 1019.5 |
| 20260901150721 | 66 | 264 | 5.0 | 13.0 | 0.00 | 0.15 | 0.00 | 73 | 1019.5 |
| 20260901145721 | 66 | 265 | 8.0 | 12.0 | 0.00 | 0.15 | 0.00 | 73 | 1019.5 |
| 20260901144721 | 66 | 283 | 8.0 | 13.0 | 0.00 | 0.15 | 0.00 | 73 | 1019.5 |
| 20260901143721 | 67 | 273 | 9.0 | 15.0 | 0.00 | 0.15 | 0.00 | 73 | 1019.4 |
| 20260901142721 | 68 | 285 | 8.0 | 14.0 | 0.00 | 0.15 | 0.00 | 71 | 1019.1 |
| 20260901141721 | 69 | 300 | 5.0 | 11.0 | 0.00 | 0.15 | 0.00 | 67 | 1019.1 |
| 20260901140721 | 69 | 234 | 5.0 | 9.0 | 0.00 | 0.15 | 0.00 | 67 | 1019.1 |
| 20260901135721 | 69 | 270 | 6.0 | 11.0 | 0.00 | 0.15 | 0.00 | 67 | 1019.1 |
| 20260901134721 | 69 | 280 | 7.0 | 12.0 | 0.00 | 0.15 | 0.00 | 67 | 1019.2 |
| 20260901133722 | 69 | 257 | 8.0 | 11.0 | 0.00 | 0.15 | 0.00 | 67 | 1019.2 |
| 20260901132721 | 69 | 237 | 7.0 | 12.0 | 0.00 | 0.18 | 0.00 | 67 | 1019.2 |
| 20260901131721 | 70 | 246 | 8.0 | 11.0 | 0.00 | 0.18 | 0.00 | 65 | 1019.2 |
| 20260901130721 | 70 | 246 | 6.0 | 9.0 | 0.00 | 0.18 | 0.00 | 65 | 1019.2 |
| 20260901125721 | 70 | 306 | 7.0 | 14.0 | 0.00 | 0.18 | 0.00 | 66 | 1019.2 |
| 20260901124721 | 70 | 248 | 7.0 | 14.0 | 0.00 | 0.18 | 0.00 | 66 | 1019.2 |
| 20260901123721 | 69 | 257 | 8.0 | 15.0 | 0.00 | 0.18 | 0.00 | 64 | 1019.2 |
| 20260901122721 | 70 | 266 | 9.0 | 11.0 | 0.00 | 0.25 | 0.00 | 68 | 1019.2 |
| 20260901121721 | 70 | 263 | 7.0 | 16.0 | 0.00 | 0.25 | 0.00 | 67 | 1019.4 |
| 20260901120721 | 69 | 273 | 6.0 | 10.0 | 0.00 | 0.25 | 0.00 | 68 | 1019.4 |
| 20260901115722 | 69 | 284 | 9.0 | 11.0 | 0.00 | 0.25 | 0.00 | 66 | 1019.4 |
| 20260901114722 | 70 | 240 | 8.0 | 16.0 | 0.00 | 0.25 | 0.00 | 65 | 1019.3 |
| 20260901113722 | 69 | 275 | 8.0 | 14.0 | 0.00 | 0.25 | 0.00 | 66 | 1019.2 |
| 20260901112722 | 69 | 222 | 8.0 | 13.0 | 0.00 | 0.25 | 0.00 | 67 | 1019.5 |
| 20260901111722 | 68 | 289 | 7.0 | 15.0 | 0.00 | 0.25 | 0.00 | 69 | 1019.4 |
| 20260901110722 | 68 | 236 | 8.0 | 11.0 | 0.00 | 0.25 | 0.00 | 72 | 1019.4 |
| 20260901105722 | 67 | 240 | 8.0 | 14.0 | 0.00 | 0.25 | 0.00 | 71 | 1019.4 |
| 20260901104722 | 67 | 258 | 7.0 | 11.0 | 0.00 | 0.25 | 0.00 | 74 | 1019.5 |
| 20260901103722 | 66 | 225 | 5.0 | 12.0 | 0.00 | 0.25 | 0.00 | 75 | 1019.4 |
| 20260901102722 | 65 | 224 | 6.0 | 11.0 | 0.00 | 0.30 | 0.00 | 77 | 1019.5 |
| 20260901101722 | 65 | 200 | 7.0 | 13.0 | 0.00 | 0.30 | 0.00 | 77 | 1019.5 |
| 20260901100722 | 65 | 242 | 5.0 | 10.0 | 0.00 | 0.30 | 0.00 | 78 | 1019.5 |
| 20260901095722 | 64 | 268 | 5.0 | 11.0 | 0.00 | 0.30 | 0.00 | 78 | 1019.5 |
| 20260901094722 | 64 | 236 | 5.0 | 8.0 | 0.00 | 0.30 | 0.00 | 81 | 1019.6 |
| 20260901093722 | 64 | 265 | 6.0 | 11.0 | 0.00 | 0.30 | 0.00 | 81 | 1019.6 |
| 20260901092722 | 64 | 234 | 7.0 | 13.0 | 0.00 | 0.30 | 0.00 | 81 | 1019.6 |
| 20260901091722 | 63 | 248 | 5.0 | 9.0 | 0.00 | 0.30 | 0.00 | 83 | 1019.6 |
| 20260901090722 | 63 | 240 | 5.0 | 8.0 | 0.00 | 0.30 | 0.00 | 83 | 1019.6 |
| 20260901085722 | 62 | 244 | 5.0 | 10.0 | 0.00 | 0.30 | 0.00 | 84 | 1019.5 |
| 20260901084722 | 62 | 248 | 7.0 | 10.0 | 0.00 | 0.30 | 0.00 | 83 | 1019.6 |
| 20260901083722 | 62 | 229 | 6.0 | 11.0 | 0.00 | 0.30 | 0.00 | 83 | 1019.6 |
| 20260901082722 | 62 | 270 | 6.0 | 12.0 | 0.00 | 0.30 | 0.00 | 83 | 1019.4 |